CAPE
0 0 0 0 0 0 0 0 0 0 0 0 0 1282 1305 1540 1567 2119 2714 2463 2337 2177 2081 1686 1956 2243 2207 2380 2377 2187 1815 1479 1308 1518 1582 1499 1560 1739 1832 2168 1823 1669 1170 623 271 52 0 0 17
0 0 0 0 0 0 0 0 0 0 0 0 0 883 1455 1621 1656 2177 2795 2706 2229 2174 1993 1298 1811 2115 2170 2215 2232 2162 2024 1911 1785 1691 1560 1527 1735 1757 2062 2045 1702 1305 745 556 236 54 12 12 44
0 0 0 0 0 0 0 0 0 0 0 0 54 141 666 592 1264 2318 2977 2871 2153 2079 1721 1639 1868 1989 2016 1931 2081 2139 2171 2138 2047 1849 1691 1709 1831 1941 2057 1950 1767 1304 709 485 142 27 22 31 59
0 0 0 0 0 0 0 0 0 0 0 0 0 13 100 0 1452 2728 2823 2796 2437 1920 1673 1803 1904 1856 1937 1821 1959 2079 2095 2143 2147 2056 1928 1904 1970 1984 1977 1968 1983 1675 976 457 144 31 0 0 13
0 0 0 0 0 0 0 0 0 0 0 0 0 0 0 0 1706 2484 2631 2427 2553 2447 1998 1515 1984 1772 1589 1570 1637 1912 2001 1971 2012 2040 1972 1948 1963 1889 1812 1887 1736 1509 978 536 198 47 18 0 0
0 0 0 0 0 0 0 0 0 0 0 0 0 0 0 0 0 807 2099 2162 1857 1882 1739 1959 1863 1772 1700 1549 1580 1803 1821 1833 1845 1899 1861 1848 1791 1681 1621 1637 1484 1298 1143 798 322 170 68 18 0
0 0 0 0 0 0 0 0 0 0 0 0 0 0 0 0 0 405 2235 2433 2232 2132 1986 2235 1748 1803 1706 1597 1547 1642 1799 1763 1746 1726 1664 1690 1686 1566 1516 1573 1499 1310 1096 854 529 302 127 29 11
0 0 0 0 0 0 0 0 0 0 0 0 0 0 0 0 0 0 36 600 1495 2062 2127 2379 2316 2027 1747 1391 1673 1536 1604 1693 1815 1774 1677 1639 1610 1441 1405 1347 1257 1300 1057 806 605 400 205 120 51
0 0 0 0 0 0 0 0 0 0 0 0 0 0 0 0 0 0 0 0 1 243 762 1496 2084 2228 2181 1728 1979 1673 1466 1505 1551 1543 1681 1350 179 183 306 504 951 1316 1177 1003 921 697 333 166 118
0 0 0 0 0 0 0 0 0 0 0 0 0 0 0 0 0 0 0 0 0 0 0 5 682 1701 2477 2217 2015 2228 1606 1164 568 310 339 617 98 97 178 480 1108 1383 1292 1288 1177 994 503 93 0
0 0 0 0 0 0 0 0 0 0 0 0 0 0 0 0 0 0 0 0 0 0 0 0 162 1513 2424 2653 2754 2476 2172 1913 1594 1047 730 695 235 234 379 296 580 746 799 337 447 220 71 0 0
0 0 0 0 0 0 0 0 0 0 0 0 0 0 0 0 0 0 0 0 0 0 0 0 0 655 1911 2382 2915 2930 2760 2405 2139 1912 1699 1363 1030 732 658 372 147 246 200 245 131 27 0 1 0
0 0 0 0 0 0 0 0 0 0 0 0 0 0 0 0 0 0 0 0 0 0 0 0 0 0 375 1831 1558 1692 2065 2050 2276 2216 1983 1800 1338 1065 872 666 425 310 220 194 211 150 21 64 14
0 0 0 0 0 0 0 0 0 0 0 0 0 0 0 0 0 0 0 0 0 0 0 0 0 0 0 577 1639 1505 1273 1219 1642 1878 2133 2056 1922 1539 1258 1008 702 614 384 229 212 201 116 83 11
0 0 0 0 0 0 0 0 0 0 0 0 0 0 0 0 0 0 0 0 0 0 0 0 0 0 0 0 219 1029 1047 873 985 1178 1945 2256 2286 2213 2009 1517 1058 777 740 506 327 338 336 251 28
0 0 0 0 0 0 0 1 0 0 0 0 0 0 0 0 0 0 0 0 0 0 0 0 0 0 0 0 0 0 686 1059 1131 1140 1373 1860 2149 2432 2190 1896 1510 1163 796 711 555 375 392 363 170
0 0 0 0 0 0 0 0 0 0 0 0 0 0 0 0 0 0 0 0 0 0 0 0 0 0 0 0 0 17 35 865 1380 1338 1290 1489 1711 1885 2242 1951 1728 1575 1123 681 563 429 473 489 416
0 0 0 0 0 0 0 0 0 0 0 0 0 0 0 0 0 0 0 0 0 0 0 0 0 0 0 0 0 13 47 71 372 1103 1435 1511 1721 1619 1960 1936 1790 1895 1397 1027 704 978 579 684 516
0 0 0 0 0 0 0 0 2 0 0 0 0 0 0 0 0 0 0 0 0 0 0 0 0 0 0 0 0 7 43 127 142 196 1052 1587 2001 1914 1934 1859 1924 2034 1958 1570 1211 917 937 595 780
0 0 0 0 0 0 0 0 0 0 0 0 0 0 0 0 0 0 0 0 0 0 0 0 0 3 2 0 1 1 14 18 45 124 509 1317 1665 2092 2143 2249 1984 1885 1886 1996 1636 1320 912 759 975
0 0 0 0 0 0 0 0 0 0 0 0 0 0 0 0 0 0 0 0 0 0 0 0 3 8 8 13 5 3 9 20 23 31 80 192 971 1926 2077 2282 2396 2318 2219 1768 2313 1660 1419 884 1043
0 0 0 0 0 1 0 0 34 61 93 105 34 12 0 0 0 0 0 0 0 0 0 1 5 12 13 23 17 19 36 37 34 44 40 123 282 684 1594 2106 2293 2625 2014 2257 2224 2288 2148 2073 901
0 0 0 0 0 0 0 0 144 31 139 283 146 48 4 0 0 0 0 0 0 0 0 2 7 17 23 23 20 27 30 23 36 51 117 205 236 276 807 1555 2144 2664 2347 2579 2538 2313 2515 1789 1340
0 0 0 0 0 9 2 7 162 174 143 170 149 49 0 0 0 0 0 0 3 0 0 3 8 19 24 14 12 27 35 25 16 12 66 98 108 132 707 889 1974 2590 2671 2523 2302 2648 2561 2148 1829
0 0 0 0 22 23 0 13 175 95 147 119 58 4 4 0 1 0 0 3 2 0 0 6 13 18 21 22 16 16 25 30 39 24 21 103 94 113 340 1356 2100 1897 2553 2705 2915 2701 2493 2328 2040
0 0 211 1 61 107 34 75 211 4 132 117 10 9 6 0 0 0 1 7 1 0 0 7 14 16 17 16 19 19 19 15 24 30 23 57 102 105 667 666 1332 1819 2047 2483 2855 2320 2087 2138 2125
1 6 0 43 35 110 79 21 35 40 78 46 16 10 11 3 6 3 2 12 14 3 0 7 12 16 21 20 21 18 24 27 29 42 53 25 29 112 153 315 621 1236 1551 2192 2537 2066 2369 2028 2113
0 0 32 78 41 19 73 40 89 61 95 70 23 18 11 4 4 5 10 20 22 7 2 9 11 12 10 11 18 13 12 24 24 25 33 31 26 26 179 252 460 917 1530 1716 2293 2310 2285 2164 1992
0 5 5 12 24 123 82 116 49 40 47 78 36 17 6 7 5 7 11 22 26 9 2 6 13 8 10 13 19 23 26 7 15 24 20 23 32 27 111 140 353 616 1040 1440 2108 2263 1460 1837 1134
0 0 1 28 54 138 127 84 78 73 74 54 32 17 10 5 4 11 19 27 25 10 3 8 13 13 11 12 22 13 26 34 29 13 12 22 29 16 41 62 261 668 873 1504 1652 1582 1555 1523 688
CIN
-0 -0 -0 -0 -0 -0 -0 -0 -0 -0 -0 -0 -0 -45 -14 -33 -19 -3 -18 -43 -58 -75 -99 -165 -113 -84 -89 -53 -61 -80 -119 -145 -162 -136 -116 -128 -126 -97 -75 -36 -50 -57 -106 -163 -222 -307 -0 -0 -196
-0 -0 -0 -0 -0 -0 -0 -0 -0 -0 -0 -0 -0 -64 -16 -33 -37 -13 -0 -55 -94 -91 -113 -178 -148 -92 -89 -75 -59 -66 -88 -98 -102 -110 -117 -120 -108 -96 -56 -40 -58 -86 -156 -183 -236 -322 -345 -236 -304
-0 -0 -0 -0 -0 -0 -0 -0 -0 -0 -0 -0 -60 -105 -89 -128 -86 -18 -26 -50 -108 -110 -128 -152 -152 -117 -101 -96 -77 -65 -67 -77 -81 -88 -93 -97 -92 -84 -57 -47 -43 -78 -144 -175 -254 -353 -372 -369 -319
-0 -0 -0 -0 -0 -0 -0 -0 -0 -0 -0 -0 -0 -48 -125 -6 -90 -15 -31 -45 -70 -94 -120 -185 -143 -128 -102 -106 -87 -74 -71 -70 -72 -77 -78 -72 -67 -62 -62 -43 -25 -32 -88 -162 -261 -331 -0 -0 -273
-0 -0 -0 -0 -0 -0 -0 -0 -0 -0 -0 -0 -0 -0 -0 -0 -57 -9 -20 -46 -30 -31 -66 -167 -127 -138 -145 -127 -108 -78 -81 -79 -73 -69 -73 -75 -72 -63 -60 -44 -41 -44 -89 -137 -234 -328 -328 -0 -0
-0 -0 -0 -0 -0 -0 -0 -0 -0 -0 -0 -0 -0 -0 -0 -0 -0 -97 -9 -16 -31 -50 -66 -95 -145 -140 -120 -117 -101 -75 -74 -77 -71 -66 -74 -78 -77 -82 -82 -63 -60 -63 -71 -100 -184 -266 -329 -398 -0
-0 -0 -0 -0 -0 -0 -0 -0 -0 -0 -0 -0 -0 -0 -0 -0 -0 -98 -7 -4 -11 -29 -39 -62 -104 -133 -138 -126 -113 -93 -73 -73 -71 -71 -78 -75 -71 -84 -85 -69 -66 -64 -71 -83 -118 -185 -286 -388 -374
-0 -0 -0 -0 -0 -0 -0 -0 -0 -0 -0 -0 -0 -0 -0 -0 -0 -0 -94 -38 -4 -2 -1 -16 -36 -40 -72 -96 -103 -99 -80 -63 -48 -51 -53 -56 -58 -68 -73 -81 -89 -66 -80 -83 -97 -146 -224 -296 -371
-0 -0 -0 -0 -0 -0 -0 -0 -0 -0 -0 -0 -0 -0 -0 -0 -0 -0 -0 -0 -14 -40 -6 -4 -0 -8 -22 -21 -45 -96 -92 -68 -51 -40 -30 -51 -146 -142 -118 -120 -80 -69 -73 -73 -61 -86 -157 -231 -304
-0 -0 -0 -0 -0 -0 -0 -0 -0 -0 -0 -0 -0 -0 -0 -0 -0 -0 -0 -0 -0 -0 -0 -26 -13 -2 -0 -5 -9 -16 -25 -59 -109 -122 -119 -93 -144 -131 -99 -66 -81 -48 -43 -38 -44 -53 -114 -273 -0
-0 -0 -0 -0 -0 -0 -0 -0 -0 -0 -0 -0 -0 -0 -0 -0 -0 -0 -0 -0 -0 -0 -0 -0 -87 -31 -0 -0 -0 -0 -0 -3 -13 -51 -76 -73 -92 -96 -77 -69 -60 -67 -88 -86 -105 -140 -175 -0 -0
-0 -0 -0 -0 -0 -0 -0 -0 -0 -0 -0 -0 -0 -0 -0 -0 -0 -0 -0 -0 -0 -0 -0 -0 -0 -66 -16 -0 -0 -0 -0 -0 -0 -2 -19 -23 -33 -43 -53 -65 -89 -75 -55 -60 -85 -102 -1 -18 -23
-0 -0 -0 -0 -0 -0 -0 -0 -0 -0 -0 -0 -0 -0 -0 -0 -0 -0 -0 -0 -0 -0 -0 -0 -0 -0 -120 -20 -11 -4 -0 -0 -0 -0 -1 -9 -24 -27 -37 -43 -44 -45 -56 -43 -46 -60 -101 -107 -154
-0 -0 -0 -0 -0 -0 -0 -0 -0 -0 -0 -0 -0 -0 -0 -0 -0 -0 -0 -0 -0 -0 -0 -0 -0 -0 -0 -99 -37 -29 -32 -29 -3 -0 -0 -0 -6 -8 -9 -36 -36 -24 -32 -38 -33 -34 -64 -96 -117
-0 -0 -0 -0 -0 -0 -0 -0 -0 -0 -0 -0 -0 -0 -0 -0 -0 -0 -0 -0 -0 -0 -0 -0 -0 -0 -0 -0 -147 -62 -46 -36 -34 -9 -0 -0 -0 -1 -1 -6 -28 -52 -14 -20 -20 -22 -36 -56 -125
-0 -0 -0 -0 -0 -0 -0 -2 -0 -0 -0 -0 -0 -0 -0 -0 -0 -0 -0 -0 -0 -0 -0 -0 -0 -0 -0 -0 -0 -0 -57 -46 -41 -22 -3 -0 -3 -0 -0 -1 -1 -23 -55 -33 -6 -6 -10 -15 -21
-0 -0 -0 -0 -0 -0 -0 -0 -0 -0 -0 -0 -0 -0 -0 -0 -0 -0 -0 -0 -0 -0 -0 -0 -0 -0 -0 -0 -0 -267 -183 -77 -56 -50 -18 -8 -0 -0 -0 -4 -2 -0 -16 -34 -33 -11 -8 -11 -15
-0 -0 -0 -0 -0 -0 -0 -0 -0 -0 -0 -0 -0 -0 -0 -0 -0 -0 -0 -0 -0 -0 -0 -0 -0 -0 -0 -0 -0 -237 -161 -129 -78 -53 -58 -17 -5 -6 -0 -0 -6 -0 -0 -3 -18 -6 -11 -7 -33
-0 -0 -0 -0 -0 -0 -0 -0 -0 -0 -0 -0 -0 -0 -0 -0 -0 -0 -0 -0 -0 -0 -0 -0 -0 -0 -0 -0 -0 -243 -173 -103 -88 -78 -42 -55 -21 -9 -1 -9 -4 -0 -0 -0 -0 -5 -21 -1 -6
-0 -0 -0 -0 -0 -0 -0 -0 -0 -0 -0 -0 -0 -0 -0 -0 -0 -0 -0 -0 -0 -0 -0 -0 -0 -0 -0 -0 -0 -0 -374 -338 -247 -175 -109 -24 -43 -25 -11 -1 -4 -0 -0 -0 -0 -0 -0 -5 -0
-0 -0 -0 -0 -0 -0 -0 -0 -0 -0 -0 -0 -0 -0 -0 -0 -0 -0 -0 -0 -0 -0 -0 -0 -0 -0 -0 -0 -0 -0 -263 -306 -304 -293 -220 -176 -68 -14 -12 -3 -0 -0 -0 -0 -0 -0 -0 -0 -3
-0 -0 -0 -0 -0 -0 -0 -0 -1 -0 -0 -0 -0 -3 -0 -0 -0 -0 -0 -0 -0 -0 -0 -0 -0 -0 -0 -0 -0 -0 -141 -204 -221 -255 -241 -177 -128 -69 -9 -0 -0 -0 -0 -0 -0 -0 -0 -0 -4
-0 -0 -0 -0 -0 -0 -0 -0 -0 -10 -0 -0 -0 -0 -0 -0 -0 -0 -0 -0 -0 -0 -0 -0 -0 -0 -0 -0 -0 -0 -158 -149 -159 -178 -166 -137 -149 -145 -30 -0 -0 -0 -0 -0 -0 -0 -0 -0 -1
-0 -0 -0 -0 -0 -1 -0 -0 -0 -0 -0 -0 -0 -4 -0 -0 -0 -0 -0 -0 -0 -0 -0 -0 -0 -29 -0 -0 -0 -0 -0 -0 -0 -55 -144 -152 -174 -182 -21 -21 -0 -0 -0 -0 -0 -0 -0 -0 -0
-0 -0 -0 -0 -7 -0 -0 -0 -0 -6 -1 -8 -4 -0 -0 -0 -0 -0 -0 -0 -0 -0 -0 -0 -0 -0 -0 -0 -0 -0 -0 -0 -0 -0 -134 -100 -139 -164 -43 -0 -0 -0 -0 -0 -0 -0 -0 -0 -0
-0 -0 -0 -1 -0 -0 -0 -0 -0 -6 -8 -4 -0 -0 -0 -0 -0 -0 -0 -0 -0 -0 -0 -0 -0 -0 -0 -0 -0 -0 -0 -0 -0 -0 -31 -226 -138 -149 -2 -3 -0 -0 -0 -0 -0 -0 -0 -0 -0
-0 -0 -0 -5 -9 -0 -0 -0 -0 -8 -0 -1 -0 -0 -0 -0 -0 -0 -0 -0 -0 -0 -0 -0 -0 -0 -0 -0 -0 -0 -0 -0 -0 -0 -0 -0 -0 -142 -116 -46 -7 -0 -0 -0 -0 -0 -0 -0 -0
-0 -0 -5 -0 -0 -0 -0 -0 -0 -0 -0 -0 -0 -0 -0 -0 -0 -0 -0 -0 -0 -0 -0 -0 -0 -0 -0 -0 -0 -0 -0 -0 -0 -0 -0 -0 -0 -0 -78 -46 -16 -0 -0 -0 -0 -0 -0 -0 -0
-0 -0 -0 -0 -0 -0 -0 -0 -0 -0 -5 -6 -0 -0 -0 -0 -0 -0 -0 -0 -0 -0 -0 -0 -0 -0 -0 -0 -0 -0 -0 -0 -0 -0 -0 -0 -0 -0 -100 -63 -8 -3 -0 -0 -0 -0 -0 -0 -26
-0 -0 -0 -0 -0 -0 -0 -2 -0 -0 -1 -0 -0 -0 -0 -0 -0 -0 -0 -0 -0 -0 -0 -0 -0 -0 -0 -0 -0 -0 -0 -0 -0 -0 -0 -0 -0 -0 -0 -87 -14 -0 -0 -0 -0 -2 -2 -0 -85
Wind_Speed
10 6 5 7 9 7 4 6 2 4 1 2 5 8 10 10 10 8 6 7 3 12 13 14 10 12 13 11 11 13 15 15 16 15 14 15 14 14 13 12 11 12 12 10 9 8 7 6 6
4 5 6 3 9 9 8 2 2 7 9 9 3 5 2 13 12 10 5 5 7 11 11 13 11 11 13 13 11 11 13 14 14 14 14 14 14 13 12 11 11 11 11 11 10 9 8 6 6
7 6 7 5 6 8 5 3 7 6 4 3 2 8 5 5 10 6 7 5 9 10 11 11 11 11 12 13 12 12 12 13 13 13 12 12 12 13 11 10 10 11 11 10 9 8 7 7 6
6 6 5 10 5 5 3 6 8 2 4 2 2 8 10 7 3 7 6 6 10 11 10 14 9 10 10 12 12 12 11 11 12 13 12 11 11 10 10 10 9 10 10 10 9 7 7 6 6
5 4 6 7 5 5 1 5 5 4 2 2 1 6 8 9 5 6 7 6 8 9 10 13 9 9 9 10 10 10 11 11 11 12 12 12 12 11 10 9 10 10 10 9 9 7 5 5 5
7 5 8 10 7 5 2 4 3 5 4 6 8 7 9 7 7 4 6 6 7 9 8 12 10 8 7 8 9 8 8 9 10 10 11 12 11 11 11 10 10 10 9 9 9 8 6 5 5
7 8 3 3 9 8 3 2 6 4 4 8 1 4 5 11 8 5 5 6 6 7 8 9 12 11 10 9 9 9 9 10 10 10 10 10 11 11 11 11 10 10 9 9 8 8 7 7 6
4 5 8 4 10 7 3 2 3 6 8 3 2 3 6 8 7 4 4 4 5 7 7 8 7 12 11 13 12 11 10 10 10 10 10 10 9 10 10 10 11 11 10 10 9 9 8 8 7
3 6 7 6 8 7 4 2 2 2 3 3 5 7 6 6 7 2 0 4 2 2 5 5 6 8 9 10 13 12 12 11 10 11 11 9 11 13 14 13 9 13 11 11 11 9 8 8 9
7 7 3 3 4 4 2 3 3 4 1 3 1 4 7 6 4 5 5 7 3 2 4 3 3 6 8 7 7 10 11 11 11 12 12 12 13 11 10 11 12 9 11 10 11 11 10 10 10
2 1 6 7 2 1 1 5 2 7 4 6 8 5 7 6 5 6 7 7 8 7 6 7 5 6 9 7 6 6 6 7 8 12 12 11 10 10 9 8 9 10 14 10 13 12 11 13 10
5 2 4 6 4 4 6 4 2 4 9 7 7 6 7 8 9 9 9 10 10 9 9 10 7 6 7 7 6 7 7 7 8 10 13 10 8 9 10 8 11 10 9 11 11 8 11 11 10
4 5 4 4 6 7 3 5 3 7 7 7 9 9 10 9 8 8 8 9 10 10 11 11 10 7 9 8 8 7 8 7 9 9 11 11 11 10 9 10 10 9 10 10 10 10 9 10 12
1 3 4 3 3 5 6 7 3 7 3 6 8 9 11 12 11 10 11 11 12 11 12 12 12 8 9 10 9 9 8 9 9 9 10 12 11 10 10 10 11 11 10 10 10 10 9 10 11
4 9 8 6 5 7 6 9 6 4 3 5 8 8 9 11 12 12 11 11 12 11 12 12 12 10 9 10 10 9 9 9 9 10 12 11 11 12 12 10 10 10 10 12 10 10 9 9 10
6 8 12 7 6 4 9 9 7 3 2 5 6 7 7 10 12 11 11 10 11 11 12 12 11 12 11 10 9 10 9 9 10 10 9 13 13 12 11 10 10 10 10 6 10 10 10 9 10
6 4 3 9 1 3 4 3 8 3 2 3 4 5 7 8 11 12 13 13 12 12 12 13 13 12 13 12 10 10 12 11 9 11 10 12 13 14 12 10 11 10 10 11 9 9 10 9 9
3 3 5 3 4 5 7 5 6 5 4 3 3 4 7 9 11 11 12 12 12 12 11 11 11 12 13 11 10 9 10 10 11 10 12 13 11 14 12 10 12 10 10 11 12 11 10 8 8
6 5 5 1 4 7 6 8 6 7 6 4 3 4 7 9 10 11 11 11 12 12 12 12 12 12 10 9 9 9 9 9 10 11 14 14 13 14 11 10 13 12 12 13 12 9 10 10 10
6 6 4 5 1 8 10 11 7 8 5 2 2 6 8 9 11 11 12 12 12 12 12 13 12 12 11 9 9 9 10 11 11 11 13 13 14 12 11 12 13 13 11 14 14 13 11 11 11
3 7 5 9 9 15 8 16 7 9 7 4 2 4 7 10 13 13 13 14 14 14 13 12 13 12 11 12 10 9 10 11 11 12 12 13 15 12 13 14 15 13 12 12 14 14 16 13 10
7 2 7 10 11 10 5 9 9 11 11 8 2 6 8 11 12 13 14 15 15 15 13 13 12 12 12 12 11 12 12 12 10 11 11 12 14 15 17 15 14 16 13 13 12 13 12 12 11
5 8 9 10 12 10 11 6 9 4 8 8 2 7 11 13 14 15 15 16 16 15 14 13 13 12 12 13 13 12 13 11 10 10 13 13 13 17 17 18 18 17 14 14 14 12 12 12 11
8 9 13 8 8 7 6 7 7 5 5 2 4 10 14 15 15 16 16 16 16 16 15 14 13 13 12 12 13 14 14 15 12 13 13 12 12 12 16 18 16 16 16 16 14 14 14 15 14
8 6 4 6 6 3 4 7 7 6 3 3 8 12 15 16 16 17 17 17 17 18 18 14 14 14 14 13 14 14 15 15 15 13 14 14 12 12 13 15 15 15 17 16 15 14 14 16 14
4 7 3 4 5 9 4 6 8 5 2 3 9 14 16 17 16 16 17 17 17 19 18 17 17 16 15 15 16 16 17 12 11 11 13 14 13 13 14 15 15 17 18 17 15 13 13 13 13
5 1 5 1 3 6 1 5 7 5 3 6 13 15 16 17 16 16 16 16 17 18 18 17 18 18 18 18 17 18 15 16 12 14 13 10 17 15 17 19 17 17 18 18 16 14 14 13 13
7 5 5 4 3 6 1 3 5 4 5 13 16 17 18 18 18 17 16 16 16 17 17 17 17 18 19 18 18 16 18 14 13 13 15 16 15 20 20 18 18 19 18 18 17 14 14 13 10
8 6 0 5 2 3 5 3 6 6 8 15 14 18 18 19 19 18 17 17 18 18 18 17 17 19 19 18 19 16 15 17 17 15 16 17 15 16 20 19 19 19 19 17 15 16 15 15 10
5 2 3 2 4 5 5 7 4 5 11 12 15 17 18 19 20 18 17 19 19 19 19 18 18 19 18 20 18 19 16 17 18 19 19 15 16 15 18 19 19 18 19 17 16 12 10 15 14
Wind_Direction
250 245 246 232 236 242 156 124 331 296 154 15 330 290 56 32 20 33 68 92 115 143 143 162 157 138 136 141 144 150 151 158 164 167 170 166 163 163 165 162 159 163 161 160 157 158 158 158 164
251 225 226 258 257 215 135 92 317 348 333 312 226 209 113 74 35 82 115 77 140 138 147 157 155 143 137 139 141 148 151 158 164 167 170 169 165 165 168 166 164 166 164 164 165 164 164 171 186
241 242 250 250 258 264 113 65 359 344 357 237 141 36 32 30 34 54 59 87 135 151 155 135 159 148 144 143 142 148 153 156 160 165 173 172 170 168 171 172 169 171 170 170 172 169 172 174 192
213 193 205 246 214 65 17 38 1 338 137 172 339 86 106 36 32 38 80 116 150 153 152 128 156 152 153 153 151 152 156 159 163 168 172 174 174 174 172 177 175 177 179 177 176 178 175 183 197
217 246 217 226 123 114 71 19 357 45 102 119 224 100 86 69 76 82 97 122 133 144 142 151 157 160 167 168 167 164 163 166 171 174 176 176 175 177 178 181 184 184 180 184 178 186 187 192 204
204 277 223 195 167 147 129 17 329 69 89 73 101 99 77 87 67 67 85 101 118 132 147 136 150 162 171 179 183 181 180 177 180 185 185 181 181 182 183 188 194 194 186 184 184 181 196 211 219
267 234 249 165 148 159 86 336 35 355 64 55 102 108 94 69 51 58 83 107 123 138 165 163 172 172 178 186 189 195 192 191 192 194 192 190 191 189 191 193 196 198 192 187 192 184 196 215 224
263 269 199 198 182 125 106 204 8 15 72 93 307 125 111 51 27 117 117 122 148 160 171 181 200 183 195 183 192 200 204 204 202 199 200 201 198 204 202 201 202 201 196 198 200 199 197 211 229
248 228 198 162 196 125 143 253 51 26 324 42 43 53 39 22 346 315 332 188 170 158 176 229 222 205 217 219 174 190 205 212 215 214 210 201 222 209 215 217 215 198 200 203 202 203 205 215 224
257 256 119 66 80 139 112 289 338 272 207 125 98 118 41 346 21 341 328 328 311 319 322 298 263 259 238 238 223 207 207 209 209 214 215 219 223 230 227 221 192 203 216 213 208 202 205 219 241
138 21 137 147 137 252 282 243 351 315 215 25 328 332 8 9 23 353 345 359 336 332 282 308 324 282 282 241 227 229 220 213 214 223 221 222 230 225 221 237 207 222 209 227 202 206 219 225 233
198 148 174 127 168 234 248 329 113 15 21 354 27 62 62 58 42 25 16 7 0 354 349 321 324 294 278 282 236 241 234 222 223 214 215 228 220 229 239 227 234 220 224 218 234 223 229 229 230
238 156 187 170 237 253 257 245 86 71 39 60 77 72 74 62 55 50 27 19 2 360 356 343 331 318 299 261 268 257 265 243 243 230 220 228 229 228 229 239 239 240 229 225 231 231 230 223 232
73 242 214 232 153 124 216 142 226 67 47 71 68 61 58 55 41 35 28 16 8 359 356 348 337 335 306 275 258 269 256 262 246 250 234 224 238 240 233 235 237 237 237 239 229 230 232 230 240
204 233 182 195 171 102 154 151 99 78 69 72 66 59 57 46 41 35 20 13 5 354 353 347 333 337 329 300 275 258 258 256 252 247 240 236 229 237 250 238 240 240 245 238 239 240 233 248 245
204 231 179 127 185 110 230 131 111 116 114 77 60 70 56 55 39 27 18 9 3 350 348 340 338 326 330 315 302 283 269 253 258 252 246 230 233 236 235 244 245 232 236 246 237 230 234 242 249
191 136 261 151 31 325 298 342 116 143 134 98 80 58 48 38 30 20 6 360 355 349 345 338 336 330 324 310 299 286 269 262 242 267 252 242 239 234 223 230 247 239 236 225 229 245 230 236 244
30 245 170 276 117 250 278 300 154 176 192 157 99 62 48 25 19 13 1 352 347 342 339 333 328 328 324 304 289 277 269 257 253 237 258 255 242 241 235 235 249 242 232 233 230 227 230 233 243
292 281 283 352 83 294 312 293 195 186 206 166 116 54 33 23 8 8 359 349 344 339 333 334 328 329 323 308 309 291 279 281 266 251 234 248 258 257 238 234 241 231 241 234 224 226 231 240 232
248 266 259 280 86 299 305 296 289 174 187 153 35 26 12 1 360 358 354 348 343 332 330 326 327 324 319 307 315 294 290 287 289 292 289 251 233 239 236 234 237 238 234 229 227 226 228 221 241
220 296 329 311 313 265 272 272 165 178 176 175 56 9 2 353 344 343 345 346 340 335 330 321 321 317 311 308 296 282 271 255 252 252 251 246 257 238 231 235 238 243 235 237 222 221 221 231 208
278 62 289 286 294 306 17 293 190 166 202 210 287 348 351 347 339 336 337 339 337 335 325 322 313 311 305 309 300 292 287 285 287 291 284 288 277 246 239 233 234 237 242 230 230 224 226 223 234
8 317 290 295 289 302 250 250 121 152 200 198 274 339 344 338 336 333 335 332 331 331 328 320 313 307 308 306 301 299 289 288 293 289 283 274 270 265 253 241 236 233 230 236 234 230 216 216 220
306 274 260 267 261 247 89 292 116 106 46 121 339 341 339 331 329 338 336 330 336 328 331 321 316 305 305 311 305 297 286 288 282 285 291 276 271 259 239 244 240 238 233 231 233 231 220 226 219
290 293 315 230 201 329 125 271 52 77 112 17 338 325 340 337 335 338 334 337 331 337 332 323 316 310 311 302 299 294 289 289 288 277 275 279 276 268 253 245 233 232 231 233 226 226 228 225 228
7 335 96 267 331 329 230 234 99 59 95 286 325 342 337 338 339 333 336 332 335 335 332 326 317 310 309 305 303 299 293 279 279 272 278 285 281 273 267 258 245 236 237 228 226 224 227 225 232
101 35 14 236 239 262 162 152 155 121 184 333 338 336 337 340 335 338 333 332 335 334 331 321 320 315 317 313 309 302 294 287 281 277 271 260 272 269 259 263 251 242 234 231 225 223 215 224 224
321 101 210 121 290 295 286 313 279 352 349 349 337 334 336 338 337 339 330 331 336 336 327 326 324 318 315 305 304 300 295 285 281 279 276 279 267 277 270 258 251 246 234 226 224 225 214 212 216
175 181 199 289 303 290 302 310 64 342 349 337 328 339 336 338 339 331 331 337 334 331 333 327 319 322 308 306 304 297 294 292 285 274 269 266 264 262 265 255 248 241 237 229 219 229 215 203 178
270 241 260 247 227 208 273 282 95 345 324 333 334 338 339 337 332 335 332 335 334 333 333 326 326 315 311 309 303 297 293 289 286 280 276 264 261 255 260 255 248 237 230 225 217 206 193 197 180